EW0295 Weather Reports


time (UTC)temp
C
wind
direction
speed
KPH
gust
KPH
rain 1hr
cm
rain 24hr
cm
rain mn
cm
humidity
%
barometer
mb
20260507170003 13 164 4.8 12.9 0.00 0.00 0.00 55 1017.5
20260507165403 13 172 4.8 12.9 0.00 0.00 0.00 54 1017.5
20260507164503 13 162 3.2 9.7 0.00 0.00 0.00 54 1017.5
20260507163603 13 151 4.8 9.7 0.00 0.00 0.00 54 1017.4
20260507162917 13 146 4.8 9.7 0.00 0.00 0.00 54 1017.4
20260507161803 13 139 3.2 11.3 0.00 0.00 0.00 55 1017.4
20260507160903 13 140 1.6 6.4 0.00 0.00 0.00 56 1017.5
20260507160003 13 141 3.2 8.0 0.00 0.00 0.00 56 1017.5
20260507155403 13 147 3.2 9.7 0.00 0.00 0.00 54 1017.4
20260507154503 13 137 1.6 9.7 0.00 0.00 0.00 53 1017.4
20260507153603 14 159 1.6 6.4 0.00 0.00 0.00 54 1017.4
20260507152917 14 0 0.0 6.4 0.00 0.00 0.00 54 1017.4
20260507151803 14 175 3.2 8.0 0.00 0.00 0.00 55 1017.3
20260507150903 14 179 4.8 9.7 0.00 0.00 0.00 54 1017.2
20260507150003 14 187 4.8 11.3 0.00 0.00 0.00 53 1017.2
20260507145403 15 210 3.2 9.7 0.00 0.00 0.00 52 1017.2
20260507144503 15 199 3.2 8.0 0.00 0.00 0.00 52 1017.2
20260507143603 15 0 0.0 6.4 0.00 0.00 0.00 53 1017.2
20260507142703 14 191 1.6 6.4 0.00 0.00 0.00 53 1017.2
20260507142016 15 0 0.0 6.4 0.00 0.00 0.00 53 1017.2
20260507140903 14 0 0.0 3.2 0.00 0.00 0.00 59 1017.2
20260507140003 13 0 0.0 4.8 0.00 0.00 0.00 61 1017.2
20260507135403 13 0 0.0 4.8 0.00 0.00 0.00 61 1017.3
20260507134503 13 80 1.6 6.4 0.00 0.00 0.00 61 1017.3
20260507133603 13 105 3.2 9.7 0.00 0.00 0.00 62 1017.3
20260507132703 14 0 0.0 4.8 0.00 0.00 0.00 57 1017.2
20260507131803 14 0 0.0 4.8 0.00 0.00 0.00 54 1017.1
20260507130903 14 145 1.6 4.8 0.00 0.00 0.00 55 1017.2
20260507130003 14 0 0.0 4.8 0.00 0.00 0.00 54 1017.1
20260507125403 14 0 0.0 1.6 0.00 0.00 0.00 53 1017.1
20260507124503 13 244 1.6 6.4 0.00 0.00 0.00 54 1017.2
20260507123603 13 291 3.2 8.0 0.00 0.00 0.00 55 1017.1
20260507122705 14 0 0.0 3.2 0.00 0.00 0.00 56 1017.0
20260507122019 13 145 1.6 8.0 0.00 0.00 0.00 55 1017.0
20260507120903 14 267 3.2 12.9 0.00 0.00 0.00 55 1017.0
20260507120003 14 280 3.2 14.5 0.00 0.00 0.00 55 1017.0
20260507115403 14 261 1.6 6.4 0.00 0.00 0.00 57 1016.9
20260507114717 13 0 0.0 8.0 0.00 0.00 0.00 56 1016.9
20260507113603 13 289 1.6 6.4 0.00 0.00 0.00 54 1016.9
20260507112703 13 271 3.2 9.7 0.00 0.00 0.00 54 1017.0
20260507111803 13 274 1.6 9.7 0.00 0.00 0.00 53 1017.0
20260507110903 14 206 1.6 8.0 0.00 0.00 0.00 53 1017.0
20260507110003 13 194 1.6 6.4 0.00 0.00 0.00 52 1016.9
20260507105403 13 195 3.2 11.3 0.00 0.00 0.00 52 1017.0
20260507104504 14 198 1.6 8.0 0.00 0.00 0.00 53 1016.9
20260507103603 14 179 4.8 11.3 0.00 0.00 0.00 52 1017.0
20260507102703 14 183 3.2 12.9 0.00 0.00 0.00 52 1016.9
20260507101803 14 149 1.6 8.0 0.00 0.00 0.00 55 1016.8
20260507100903 13 205 3.2 11.3 0.00 0.00 0.00 53 1016.9
20260507100003 13 164 4.8 12.9 0.00 0.00 0.00 56 1016.8
20260507095403 13 181 4.8 12.9 0.00 0.00 0.00 57 1016.7
20260507094503 13 162 3.2 9.7 0.00 0.00 0.00 62 1016.7
20260507093603 13 190 3.2 12.9 0.00 0.00 0.00 61 1016.7
20260507092703 13 201 3.2 9.7 0.00 0.00 0.00 63 1016.6
20260507091803 13 201 1.6 8.0 0.00 0.00 0.00 62 1016.6
20260507091117 13 184 3.2 9.7 0.00 0.00 0.00 65 1016.6
20260507090004 12 207 1.6 9.7 0.00 0.00 0.00 67 1016.5
20260507085403 12 212 1.6 8.0 0.00 0.00 0.00 68 1016.6
20260507084503 12 185 1.6 9.7 0.00 0.00 0.00 68 1016.5
20260507083603 12 164 1.6 9.7 0.00 0.00 0.00 69 1016.5
20260507082703 11 218 1.6 4.8 0.00 0.00 0.00 70 1016.5
20260507081803 12 212 1.6 6.4 0.00 0.00 0.00 70 1016.5
20260507081117 11 245 1.6 4.8 0.00 0.00 0.00 70 1016.4
20260507080003 11 191 1.6 8.0 0.00 0.00 0.00 71 1016.3
20260507075403 11 149 3.2 8.0 0.00 0.00 0.00 71 1016.2
20260507074503 11 173 1.6 6.4 0.00 0.00 0.00 73 1016.2
20260507073603 11 201 1.6 6.4 0.00 0.00 0.00 74 1016.1
20260507072703 11 0 0.0 3.2 0.00 0.00 0.00 75 1016.1
20260507071803 10 259 1.6 6.4 0.00 0.00 0.00 75 1016.2
20260507070903 10 250 1.6 4.8 0.00 0.00 0.00 78 1016.1
20260507070216 10 0 0.0 8.0 0.00 0.00 0.00 78 1016.1
20260507065616 10 173 1.6 8.0 0.00 0.00 0.00 78 1016.0
20260507064503 9 0 0.0 4.8 0.00 0.00 0.00 80 1016.0
20260507063603 8 0 0.0 4.8 0.00 0.00 0.00 81 1016.0
20260507062703 8 0 0.0 3.2 0.00 0.00 0.00 82 1015.9
20260507061803 8 237 1.6 6.4 0.00 0.00 0.00 82 1015.8
20260507060903 8 246 1.6 8.0 0.00 0.00 0.00 82 1015.7
20260507060003 8 0 0.0 0.0 0.00 0.00 0.00 82 1015.6
20260507055403 7 0 0.0 0.0 0.00 0.00 0.00 84 1015.6
20260507054503 6 0 0.0 0.0 0.00 0.00 0.00 83 1015.5
20260507053603 6 0 0.0 0.0 0.00 0.00 0.00 83 1015.3
20260507052917 6 0 0.0 0.0 0.00 0.00 0.00 82 1015.3
20260507051803 6 0 0.0 0.0 0.00 0.00 0.00 81 1015.3
20260507050903 6 0 0.0 0.0 0.00 0.00 0.00 81 1015.1
20260507050219 6 0 0.0 0.0 0.00 0.00 0.00 80 1015.1
20260507045403 5 0 0.0 0.0 0.00 0.00 0.00 80 1015.1
20260507044503 6 0 0.0 0.0 0.00 0.00 0.00 80 1015.1
20260507043603 6 0 0.0 0.0 0.00 0.00 0.00 80 1015.0
20260507042703 6 0 0.0 0.0 0.00 0.00 0.00 82 1014.9
20260507041803 6 0 0.0 0.0 0.00 0.00 0.00 82 1014.8
20260507040903 5 0 0.0 0.0 0.00 0.00 0.00 82 1014.7
20260507040003 5 0 0.0 0.0 0.00 0.00 0.00 81 1014.6
20260507035618 4 0 0.0 0.0 0.00 0.00 0.00 81 1014.6
20260507034718 4 0 0.0 0.0 0.00 0.00 0.00 81 1014.6
20260507033603 3 0 0.0 0.0 0.00 0.00 0.00 81 1014.7
20260507032703 3 0 0.0 0.0 0.00 0.00 0.00 80 1014.6
20260507031803 3 0 0.0 0.0 0.00 0.00 0.00 81 1014.6
20260507030903 3 0 0.0 0.0 0.00 0.00 0.00 81 1014.6
20260507030003 3 0 0.0 0.0 0.00 0.00 0.00 80 1014.6
20260507025403 3 0 0.0 0.0 0.00 0.00 0.00 80 1014.5
20260507024503 3 0 0.0 0.0 0.00 0.00 0.00 80 1014.4
20260507023603 3 0 0.0 0.0 0.00 0.00 0.00 80 1014.4
20260507022916 3 0 0.0 0.0 0.00 0.00 0.00 80 1014.3
20260507021803 3 0 0.0 0.0 0.00 0.00 0.00 79 1014.2
20260507021119 3 0 0.0 0.0 0.00 0.00 0.00 79 1014.2
20260507020003 4 0 0.0 0.0 0.00 0.00 0.00 79 1014.3
20260507015403 4 0 0.0 0.0 0.00 0.00 0.00 79 1014.2
20260507014717 4 0 0.0 0.0 0.00 0.00 0.00 78 1014.2
20260507013603 4 0 0.0 1.6 0.00 0.00 0.00 78 1014.0
20260507012703 5 0 0.0 1.6 0.00 0.00 0.00 78 1014.0
20260507011803 5 0 0.0 0.0 0.00 0.00 0.00 78 1014.0
20260507010003 5 0 0.0 0.0 0.00 0.00 0.00 77 1014.0
20260507005403 5 0 0.0 0.0 0.00 0.00 0.00 76 1014.0
20260507004503 5 0 0.0 0.0 0.00 0.00 0.00 76 1014.0
20260507003603 6 0 0.0 1.6 0.00 0.00 0.00 76 1014.0
20260507002915 6 0 0.0 1.6 0.00 0.00 0.00 76 1014.0
20260507001803 6 0 0.0 1.6 0.00 0.00 0.00 76 1013.9
20260507000903 6 0 0.0 1.6 0.00 0.00 0.00 75 1013.9
20260507000003 6 0 0.0 3.2 0.00 0.00 0.00 74 1013.8
20260506235617 6 0 0.0 3.2 0.00 0.00 0.00 73 1013.8
20260506234503 6 0 0.0 0.0 0.00 0.00 0.00 75 1013.7
20260506233816 6 0 0.0 0.0 0.00 0.00 0.00 74 1013.7
20260506232703 7 0 0.0 1.6 0.00 0.00 0.00 74 1013.7
20260506231804 6 0 0.0 1.6 0.00 0.00 0.00 73 1013.6
20260506230903 6 0 0.0 1.6 0.00 0.00 0.00 74 1013.6
20260506230217 6 0 0.0 1.6 0.00 0.00 0.00 74 1013.6
20260506225403 6 0 0.0 1.6 0.00 0.00 0.00 73 1013.5
20260506224503 6 0 0.0 1.6 0.00 0.00 0.00 73 1013.5
20260506223603 6 0 0.0 1.6 0.00 0.00 0.00 74 1013.5
20260506222703 6 0 0.0 3.2 0.00 0.00 0.00 73 1013.4
20260506221803 6 0 0.0 1.6 0.00 0.00 0.00 73 1013.4
20260506220903 7 0 0.0 1.6 0.00 0.00 0.00 73 1013.4
20260506220003 7 0 0.0 3.2 0.00 0.00 0.00 72 1013.4
20260506215403 7 0 0.0 6.4 0.00 0.00 0.00 71 1013.4
20260506214503 7 18 1.6 6.4 0.00 0.00 0.00 71 1013.4
20260506213603 7 25 1.6 8.0 0.00 0.00 0.00 71 1013.3
20260506212918 7 28 3.2 9.7 0.00 0.00 0.00 71 1013.3
20260506212018 7 16 3.2 8.0 0.00 0.00 0.00 70 1013.3
20260506210903 7 2 3.2 11.3 0.00 0.00 0.00 70 1013.2
20260506210003 8 352 4.8 11.3 0.00 0.00 0.00 69 1013.2
20260506205403 8 344 4.8 12.9 0.00 0.00 0.00 69 1013.1
20260506204503 8 340 4.8 9.7 0.00 0.00 0.00 70 1013.1
20260506203603 9 340 1.6 6.4 0.00 0.00 0.00 70 1013.0
20260506202703 9 351 3.2 9.7 0.00 0.00 0.00 71 1013.0
20260506201803 10 0 0.0 1.6 0.00 0.00 0.00 75 1012.9
20260506200903 10 0 0.0 0.0 0.00 0.00 0.00 74 1012.8
20260506200003 10 0 0.0 0.0 0.00 0.00 0.00 73 1012.8
20260506195403 10 0 0.0 0.0 0.00 0.00 0.00 73 1012.8
20260506194503 10 0 0.0 0.0 0.00 0.00 0.00 73 1012.6
20260506193603 10 0 0.0 3.2 0.00 0.00 0.00 73 1012.5
20260506192703 10 0 0.0 3.2 0.00 0.00 0.00 73 1012.6
20260506192017 10 0 0.0 1.6 0.00 0.00 0.00 73 1012.5
20260506190903 10 0 0.0 3.2 0.00 0.00 0.00 72 1012.2
20260506190215 10 0 0.0 3.2 0.00 0.00 0.00 72 1012.1
20260506185619 10 103 1.6 4.8 0.00 0.00 0.00 72 1012.0
20260506184503 10 0 0.0 4.8 0.00 0.00 0.00 70 1012.0
20260506183603 11 105 1.6 8.0 0.00 0.00 0.00 69 1011.9
20260506182703 11 0 0.0 4.8 0.00 0.00 0.00 68 1011.8
20260506181803 11 90 1.6 4.8 0.00 0.00 0.00 68 1011.7
20260506180903 11 103 1.6 6.4 0.00 0.00 0.00 64 1011.5
20260506180004 11 125 1.6 6.4 0.00 0.00 0.00 57 1011.5
20260506175403 12 123 1.6 6.4 0.00 0.00 0.00 54 1011.4
20260506174503 12 121 1.6 6.4 0.00 0.00 0.00 52 1011.4
20260506173603 12 129 1.6 6.4 0.00 0.00 0.00 53 1011.3
20260506172703 12 113 1.6 8.0 0.00 0.00 0.00 55 1011.3
20260506171803 12 0 0.0 3.2 0.00 0.00 0.00 55 1011.2
20260506170903 12 98 1.6 4.8 0.00 0.00 0.00 55 1011.2